DE2MSF Weather Reports


Display with metric or nautical units.
time (UTC)temp
F
wind
direction
speed
MPH
gust
MPH
rain 1hr
in
rain 24hr
in
rain mn
in
humidity
%
barometer
mb
20260903164559 74 300 7.0 17.0 0.00 0.00 0.00 63 1015.8
20260903163100 75 263 7.0 20.0 0.00 0.00 0.00 62 1016.2
20260903161600 75 293 6.0 15.0 0.00 0.00 0.00 63 1015.7
20260903160059 75 274 9.0 18.0 0.00 0.00 0.00 64 1016.0
20260903154559 75 273 6.0 18.0 0.00 0.00 0.00 64 1015.8
20260903153059 75 306 7.0 17.0 0.00 0.00 0.00 66 1015.7
20260903151600 75 282 6.0 18.0 0.00 0.00 0.00 67 1015.5
20260903150100 76 284 7.0 17.0 0.00 0.00 0.00 67 1015.7
20260903144559 75 278 5.0 13.0 0.00 0.06 0.00 68 1015.7
20260903143059 74 266 6.0 17.0 0.00 0.06 0.00 70 1015.7
20260903141600 74 275 6.0 16.0 0.00 0.06 0.00 70 1015.8
20260903140059 75 285 6.0 20.0 0.00 0.06 0.00 71 1015.6
20260903133059 72 256 4.0 13.0 0.00 0.06 0.00 77 1015.6
20260903131559 73 237 7.0 16.0 0.00 0.06 0.00 77 1015.8
20260903130059 71 258 5.0 14.0 0.00 0.06 0.00 80 1015.7
20260903123059 71 250 9.0 24.0 0.00 0.06 0.00 80 1015.4
20260903121559 71 270 6.0 17.0 0.00 0.06 0.00 80 1015.4
20260903120058 70 290 6.0 15.0 0.00 0.06 0.00 81 1015.6
20260903114559 71 264 5.0 16.0 0.00 0.06 0.00 80 1015.7
20260903113058 70 286 6.0 15.0 0.00 0.06 0.00 82 1015.7
20260903111558 68 247 6.0 15.0 0.00 0.06 0.00 87 1015.7
20260903110059 67 281 4.0 17.0 0.00 0.06 0.00 89 1015.9
20260903104558 66 284 4.0 14.0 0.00 0.06 0.00 91 1015.8
20260903103059 66 282 5.0 16.0 0.00 0.06 0.00 87 1016.0
20260903101558 66 276 5.0 16.0 0.00 0.06 0.00 87 1016.0
20260903100058 65 250 7.0 16.0 0.00 0.06 0.00 86 1015.7
20260903093057 65 233 7.0 16.0 0.00 0.06 0.00 86 1015.8
20260903090057 65 237 9.0 22.0 0.00 0.06 0.00 83 1015.7
20260903084559 67 253 7.0 21.0 0.00 0.06 0.00 78 1015.5
20260903083057 67 242 7.0 14.0 0.00 0.06 0.00 78 1015.4
20260903081558 67 260 6.0 16.0 0.00 0.06 0.00 78 1015.3
20260903080057 67 241 8.0 17.0 0.00 0.06 0.00 77 1015.4
20260903073058 65 240 5.0 11.0 0.00 0.06 0.00 79 1015.6
20260903071557 65 258 6.0 14.0 0.00 0.06 0.00 79 1015.8
20260903070057 65 230 6.0 14.0 0.00 0.06 0.00 78 1015.7
20260903064557 65 251 5.0 13.0 0.00 0.06 0.00 77 1015.6
20260903063057 65 249 6.0 14.0 0.00 0.06 0.00 76 1015.7
20260903061557 65 253 5.0 11.0 0.00 0.06 0.00 76 1015.8
20260903060057 64 256 5.0 11.0 0.00 0.06 0.00 76 1015.6
20260903054558 64 251 4.0 9.0 0.00 0.06 0.00 77 1015.8
20260903051556 64 240 5.0 11.0 0.00 0.06 0.00 76 1015.5
20260903050056 64 230 5.0 11.0 0.00 0.06 0.00 77 1015.2
20260903044556 63 227 5.0 8.0 0.00 0.06 0.00 80 1015.5
20260903041557 63 240 4.0 9.0 0.00 0.06 0.00 84 1016.0
20260903040056 62 223 4.0 9.0 0.00 0.06 0.00 88 1016.2
20260903033055 61 250 5.0 9.0 0.00 0.06 0.00 91 1016.4
20260903031556 62 256 8.0 16.0 0.00 0.06 0.00 87 1016.7
20260903030055 64 267 6.0 11.0 0.00 0.06 0.00 76 1016.8
20260903024556 64 232 4.0 8.0 0.00 0.06 0.00 78 1016.8
20260903023055 64 252 4.0 14.0 0.00 0.06 0.00 77 1016.9
20260903021555 64 232 5.0 9.0 0.00 0.06 0.00 78 1016.8
20260903020055 63 215 4.0 8.0 0.00 0.06 0.00 80 1016.6
20260903014555 63 219 4.0 9.0 0.00 0.06 0.00 82 1017.2
20260903013055 63 239 5.0 11.0 0.00 0.06 0.00 82 1017.2
20260903011554 63 251 4.0 9.0 0.00 0.06 0.00 81 1017.6
20260903010056 63 255 5.0 15.0 0.00 0.06 0.00 80 1017.7
20260903004555 64 282 5.0 15.0 0.00 0.06 0.00 80 1018.0
20260903003056 65 222 6.0 16.0 0.00 0.06 0.00 75 1017.9
20260903001556 64 238 5.0 11.0 0.00 0.06 0.00 76 1018.1
20260903000056 64 249 5.0 11.0 0.00 0.06 0.00 76 1018.1
20260902234555 64 237 4.0 8.0 0.00 0.06 0.00 77 1018.1
20260902233055 64 224 4.0 11.0 0.00 0.06 0.00 78 1018.1
20260902231556 64 220 3.0 6.0 0.00 0.06 0.00 79 1018.3
20260902230055 64 213 4.0 7.0 0.00 0.06 0.00 79 1018.5
20260902224556 64 201 3.0 6.0 0.00 0.06 0.00 80 1018.5
20260902220054 64 245 3.0 7.0 0.00 0.06 0.00 81 1018.8
20260902214555 64 237 3.0 6.0 0.00 0.06 0.06 81 1019.1
20260902213055 64 233 3.0 6.0 0.00 0.06 0.06 82 1019.0
20260902211554 64 226 2.0 6.0 0.00 0.06 0.06 82 1019.2
20260902210054 64 235 1.0 4.0 0.00 0.06 0.06 82 1019.0
20260902204555 64 182 1.0 4.0 0.00 0.06 0.06 82 1019.2
20260902203054 64 211 1.0 4.0 0.00 0.06 0.06 82 1019.3
20260902200054 64 254 1.0 4.0 0.00 0.06 0.06 81 1019.6
20260902194554 64 257 2.0 4.0 0.00 0.06 0.06 80 1019.4
20260902191554 65 248 2.0 4.0 0.00 0.06 0.06 79 1019.7
20260902190054 65 247 1.0 4.0 0.00 0.06 0.06 79 1019.7
20260902183053 65 291 2.0 6.0 0.00 0.06 0.06 78 1019.3
20260902180053 65 206 1.0 4.0 0.00 0.06 0.06 85 1019.4
20260902174555 65 150 1.0 2.0 0.00 0.06 0.06 84 1019.0
20260902173054 65 156 1.0 4.0 0.00 0.06 0.06 81 1019.0
20260902171554 66 203 1.0 4.0 0.00 0.06 0.06 80 1019.1